Content
SEND FEEDBACK

Daily
Averages
Monthly
Summary
Egypt

ASYUT, EGYPT


Home > Middle East > Egypt
Elevation: 230 feet     Latitude: 27 03N     Longitude: 031 01E

WEATHER
 
SELECT A DAY
Number of Records: 84,811;   Date Range: 4/13/99 - 7/11/14
 
SHARE

PRINT THIS DATA

[ ← Previous Day ]
WEATHER ALMANAC - JANUARY 23, 2013
[ Next Day → ]
[ °C ]   °F
Weather ElementAverageHighLow
Temperature58.4 °F71.6 °F (3:00 pm)48 °F (8:00 am)
Dewpoint48.5 °F52 °F (8:00 pm)44.6 °F (4:00 am)
Humidity70.3 %93 % (7:00 am)39 % (2:00 pm)
Barometer30.11 in30.16 in (8:00 am)30.09 in (1:00 pm)
Wind Speed8.2 mph11.5 mph (3:00 am)
Weather ElementAverage
Visibility6 mi
Wind DirectionNW (317 °)

Weather ElementTotal
Precipitation---
Heating Degree Days5.2 (Base 65)
Growing Degree Days9.8 (Base 50)
Averaged from 27 records on January 23, 2013
WEATHER CONDITIONS BREAKOUT
WIND DIRECTION BREAKOUT
WEATHER BY HOUR - JANUARY 23, 2013
[ °C ]   °F
Local TimeTemperatureDewpointHumidityBarometerVisibilityWind DirectionWind SpeedGust SpeedPrecipitationEventsConditions
1:00 AM55.4 °F46.4 °F72 %30.12 inWNW (290°)10.4 mphClear
2:00 AM53.0 °F47.0 °F73 %30.12 in6.0 miWNW (290°)9.2 mph
2:00 AM53.6 °F46.4 °F77 %30.12 inWNW (290°)9.2 mphClear
3:00 AM51.8 °F46.4 °F82 %30.12 inWNW (300°)11.5 mphClear
4:00 AM50.0 °F44.6 °F82 %30.12 inWest (280°)10.4 mphClear
5:00 AM50.0 °F46.4 °F87 %30.12 inWNW (290°)6.9 mphClear
6:00 AM48.2 °F44.6 °F87 %30.12 inWNW (300°)8.1 mphClear
7:00 AM48.2 °F46.4 °F93 %30.12 inWNW (300°)3.5 mphClear
8:00 AM48.0 °F47.0 °F93 %30.16 in6.0 miWNW (300°)5.8 mph
8:00 AM48.2 °F46.4 °F93 %30.15 inWNW (300°)5.8 mphClear
9:00 AM55.4 °F46.4 °F72 %30.15 inWNW (290°)5.8 mphClear
10:00 AM59.0 °F46.4 °F63 %30.15 inNNW (330°)6.9 mphClear
11:00 AM64.4 °F50.0 °F59 %30.15 inNorth (360°)8.1 mphClear
12:00 PM66.2 °F50.0 °F56 %30.12 inNNW (330°)8.1 mphClear
1:00 PM68.0 °F48.2 °F49 %30.09 inNorth (350°)10.4 mphClear
2:00 PM70.0 °F50.0 °F39 %30.10 in6.0 miNorth (350°)11.5 mph
2:00 PM69.8 °F50.0 °F49 %30.09 inNorth (350°)11.5 mphClear
3:00 PM71.6 °F50.0 °F46 %30.09 inNNW (340°)10.4 mphClear
4:00 PM69.8 °F50.0 °F49 %30.09 inNNW (330°)10.4 mphClear
5:00 PM68.0 °F50.0 °F52 %30.09 inNW (320°)10.4 mphClear
6:00 PM66.2 °F50.0 °F56 %30.09 inNW (310°)11.5 mphClear
7:00 PM60.8 °F51.8 °F72 %30.09 inNW (320°)9.2 mphClear
8:00 PM59.0 °F52.0 °F69 %30.11 in6.0 miNW (320°)6.9 mph
8:00 PM59.0 °F51.8 °F77 %30.09 inNW (320°)6.9 mphClear
9:00 PM57.2 °F51.8 °F82 %30.12 inNNW (330°)6.9 mphClear
10:00 PM55.4 °F50.0 °F82 %30.12 inNW (320°)4.6 mphClear
11:00 PM51.8 °F48.2 °F88 %30.09 inNorth (350°)2.3 mphClear
Hourly data recorded from HEAT, located miles away from Asyut, Egypt







STORIES FROM OUR PARTNERS